Weather History for KJFZ - March, 2014

Change the Weather History Date:

Saturday, March 15, 2014

  Actual Average (KBLF) Record (KBLF)
Temperature  
Mean Temperature 56 °F 45 °F  
Max Temperature 61 °F 54 °F 76 °F (1977)
Min Temperature 50 °F 36 °F 6 °F (1993)
Degree Days  
Heating Degree Days 10 20  
Month to date heating degree days 335  
Since 1 July heating degree days 3828  
Cooling Degree Days 0 0  
Month to date cooling degree days 0  
Year to date cooling degree days 0  
Growing Degree Days 6 (Base 50)    
Moisture  
Dew Point 27 °F    
Average Humidity 36    
Maximum Humidity 56    
Minimum Humidity 20    
Precipitation  
Precipitation 0.00 in 0.12 in 1.05 in (1999)
Month to date precipitation 1.67  
Year to date precipitation 7.33  
Snow  
Snow 0.00 in - - ()
Month to date snowfall  
Since 1 July snowfall  
Snow Depth -    
Sea Level Pressure  
Sea Level Pressure 30.02 in    
Wind  
Wind Speed 12 mph (West)    
Max Wind Speed 20 mph    
Max Gust Speed 29 mph    
Visibility 10 miles    
Events      
T = Trace of Precipitation, MM = Missing Value Source: NWS Daily Summary

Daily Weather History Graph

Daily Weather History Graph

Search for Another Location

Airport or City:

Trip Planner

Search our weather history database for the weather conditions in past years. The results will help you decide how hot, cold, wet, or windy it might be!

Date:

Astronomy

Mar. 15, 2014 Rise Set
Actual Time 7:38 AM EDT 7:34 PM EDT
Civil Twilight 7:12 AM EDT 8:00 PM EDT
Nautical Twilight 6:42 AM EDT 8:30 PM EDT
Astronomical Twilight 6:11 AM EDT 9:01 PM EDT
Moon 6:52 PM EDT (3/15) 6:48 AM EDT (3/15)
Length of Visible Light 12h 48m
Length of Day
11h 56m
Waxing Gibbous, 99% of the Moon is Illuminated
Mar 15
Waxing Gibbous
Mar 16
Full
Mar 23
Last Quarter
Mar 30
New
Apr 7
First Quarter

Hourly Weather History & Observations

Time (EDT) Temp. Dew Point Humidity Pressure Visibility Wind Dir Wind Speed Gust Speed Precip Events Conditions
12:15 AM 53.4 °F 24.8 °F 33% 29.99 in 10.0 mi WSW 12.7 mph 20.7 mph N/A   Overcast
12:35 AM 53.6 °F 24.6 °F 33% 29.98 in 10.0 mi WSW 15.0 mph 23.0 mph N/A   Overcast
12:55 AM 53.6 °F 24.8 °F 33% 29.98 in 10.0 mi WSW 19.6 mph 24.2 mph N/A   Overcast
1:15 AM 53.8 °F 25.0 °F 33% 29.98 in 10.0 mi WSW 17.3 mph 27.6 mph N/A   Overcast
1:35 AM 53.6 °F 26.4 °F 35% 29.98 in 10.0 mi WSW 15.0 mph 25.3 mph N/A   Overcast
1:55 AM 53.6 °F 26.8 °F 36% 29.98 in 10.0 mi WSW 17.3 mph 28.8 mph N/A   Overcast
2:15 AM 53.6 °F 27.9 °F 37% 29.98 in 10.0 mi WSW 11.5 mph 23.0 mph N/A   Overcast
2:35 AM 53.6 °F 28.2 °F 38% 29.98 in 10.0 mi WSW 13.8 mph 26.5 mph N/A   Overcast
2:55 AM 53.2 °F 28.6 °F 39% 29.99 in 10.0 mi WSW 13.8 mph 23.0 mph N/A   Overcast
3:15 AM 53.1 °F 29.3 °F 40% 29.98 in 10.0 mi WSW 15.0 mph 21.9 mph N/A   Overcast
3:35 AM 52.7 °F 29.8 °F 42% 29.98 in 10.0 mi WSW 13.8 mph 20.7 mph N/A   Overcast
3:55 AM 52.7 °F 30.2 °F 42% 29.97 in 10.0 mi WSW 16.1 mph 24.2 mph N/A   Overcast
4:15 AM 52.7 °F 30.4 °F 42% 29.97 in 10.0 mi WSW 13.8 mph 25.3 mph N/A   Overcast
4:35 AM 52.2 °F 30.7 °F 44% 29.96 in 10.0 mi WSW 11.5 mph 17.3 mph N/A   Overcast
4:55 AM 51.8 °F 31.1 °F 45% 29.97 in 10.0 mi West 11.5 mph 17.3 mph N/A   Overcast
5:15 AM 51.8 °F 31.1 °F 45% 29.97 in 10.0 mi WSW 13.8 mph 19.6 mph N/A   Overcast
5:35 AM 51.4 °F 31.6 °F 47% 29.98 in 10.0 mi West 10.4 mph 18.4 mph N/A   Overcast
5:55 AM 51.1 °F 32.0 °F 48% 29.98 in 10.0 mi West 12.7 mph 17.3 mph N/A   Overcast
6:15 AM 51.1 °F 31.8 °F 48% 29.98 in 10.0 mi West 10.4 mph 26.5 mph N/A   Overcast
6:35 AM 51.1 °F 32.0 °F 48% 29.99 in 10.0 mi West 11.5 mph 19.6 mph N/A   Overcast
6:55 AM 50.5 °F 32.0 °F 49% 29.99 in 10.0 mi West 9.2 mph 17.3 mph N/A   Overcast
7:15 AM 50.2 °F 32.0 °F 50% 30.00 in 10.0 mi WSW 11.5 mph 16.1 mph N/A   Overcast
7:35 AM 50.2 °F 32.7 °F 51% 30.00 in 10.0 mi WSW 10.4 mph 16.1 mph N/A   Overcast
7:55 AM 50.0 °F 33.6 °F 53% 30.01 in 10.0 mi WSW 10.4 mph 18.4 mph N/A   Overcast
8:15 AM 50.0 °F 33.6 °F 53% 30.01 in 10.0 mi WSW 9.2 mph 16.1 mph N/A   Overcast
8:35 AM 50.0 °F 33.8 °F 54% 30.02 in 10.0 mi West 8.1 mph - N/A   Overcast
8:55 AM 50.0 °F 34.7 °F 56% 30.03 in 10.0 mi WSW 12.7 mph 19.6 mph N/A   Overcast
9:15 AM 50.5 °F 35.1 °F 55% 30.03 in 10.0 mi West 11.5 mph 16.1 mph N/A   Overcast
9:35 AM 50.9 °F 35.2 °F 55% 30.03 in 10.0 mi West 8.1 mph - N/A   Mostly Cloudy
9:55 AM 51.1 °F 35.4 °F 55% 30.05 in 10.0 mi West 11.5 mph 21.9 mph N/A   Scattered Clouds
10:15 AM 51.4 °F 34.9 °F 53% 30.05 in 10.0 mi West 13.8 mph 23.0 mph N/A   Mostly Cloudy
10:35 AM 52.7 °F 35.1 °F 51% 30.05 in 10.0 mi West 13.8 mph 19.6 mph N/A   Mostly Cloudy
10:55 AM 53.4 °F 34.3 °F 48% 30.06 in 10.0 mi WNW 11.5 mph 18.4 mph N/A   Mostly Cloudy
11:15 AM 54.1 °F 33.6 °F 46% 30.06 in 10.0 mi WNW 15.0 mph 21.9 mph N/A   Mostly Cloudy
11:35 AM 54.9 °F 33.4 °F 44% 30.07 in 10.0 mi West 18.4 mph 25.3 mph N/A   Scattered Clouds
11:55 AM 54.9 °F 32.0 °F 42% 30.06 in 10.0 mi WNW 10.4 mph 23.0 mph N/A   Scattered Clouds
12:15 PM 55.9 °F 31.8 °F 40% 30.06 in 10.0 mi West 15.0 mph 24.2 mph N/A   Scattered Clouds
12:35 PM 56.1 °F 30.4 °F 38% 30.06 in 10.0 mi West 15.0 mph 21.9 mph N/A   Clear
12:55 PM 57.7 °F 29.8 °F 35% 30.06 in 10.0 mi WNW 4.6 mph - N/A   Clear
1:15 PM 58.1 °F 28.8 °F 33% 30.06 in 10.0 mi West 15.0 mph 20.7 mph N/A   Clear
1:35 PM 58.3 °F 27.5 °F 31% 30.05 in 10.0 mi NW 15.0 mph 24.2 mph N/A   Clear
2:15 PM 59.5 °F 27.5 °F 30% 30.05 in 10.0 mi WNW 11.5 mph 19.6 mph N/A   Clear
2:35 PM 60.3 °F 25.7 °F 27% 30.04 in 10.0 mi WNW 10.4 mph 21.9 mph N/A   Clear
2:55 PM 60.4 °F 26.6 °F 28% 30.03 in 10.0 mi WNW 10.4 mph 17.3 mph N/A   Clear
3:15 PM 61.9 °F 25.5 °F 25% 30.03 in 10.0 mi WNW 15.0 mph 18.4 mph N/A   Clear
3:35 PM 60.6 °F 23.9 °F 25% 30.03 in 10.0 mi NW 12.7 mph 19.6 mph N/A   Clear
3:55 PM 61.5 °F 23.2 °F 23% 30.03 in 10.0 mi NW 15.0 mph 20.7 mph N/A   Clear
4:15 PM 61.7 °F 22.1 °F 22% 30.03 in 10.0 mi WNW 13.8 mph 19.6 mph N/A   Clear
4:35 PM 61.5 °F 24.1 °F 24% 30.02 in 10.0 mi WNW 8.1 mph 16.1 mph N/A   Clear
4:55 PM 61.0 °F 22.6 °F 23% 30.03 in 10.0 mi WNW 11.5 mph 21.9 mph N/A   Clear
5:15 PM 61.3 °F 20.8 °F 21% 30.03 in 10.0 mi WNW 11.5 mph 21.9 mph N/A   Clear
5:35 PM 61.2 °F 19.9 °F 20% 30.03 in 10.0 mi NNW 10.4 mph 19.6 mph N/A   Clear
5:55 PM 61.0 °F 20.7 °F 21% 30.03 in 10.0 mi NW 4.6 mph - N/A   Clear
6:15 PM 61.0 °F 21.9 °F 22% 30.03 in 10.0 mi WNW 5.8 mph - N/A   Clear
6:35 PM 60.3 °F 21.9 °F 23% 30.03 in 10.0 mi NW 5.8 mph - N/A   Clear
6:55 PM 59.9 °F 21.9 °F 23% 30.03 in 10.0 mi NW 5.8 mph - N/A   Clear
7:15 PM 59.0 °F 22.1 °F 24% 30.04 in 10.0 mi NNW 3.5 mph - N/A   Clear
7:35 PM 57.9 °F 22.6 °F 26% 30.05 in 10.0 mi NNW 3.5 mph - N/A   Clear
7:55 PM 57.2 °F 22.1 °F 26% 30.05 in 10.0 mi NNW 4.6 mph - N/A   Clear
8:15 PM 56.7 °F 21.9 °F 26% 30.05 in 10.0 mi NW 4.6 mph - N/A   Clear
8:35 PM 56.1 °F 21.9 °F 27% 30.05 in 10.0 mi NW 5.8 mph - N/A   Clear
8:55 PM 55.8 °F 21.9 °F 27% 30.05 in 10.0 mi NNW 3.5 mph - N/A   Clear
9:15 PM 55.2 °F 22.1 °F 28% 30.05 in 10.0 mi NNW 3.5 mph - N/A   Clear
9:35 PM 55.4 °F 22.5 °F 28% 30.05 in 10.0 mi Calm Calm - N/A   Clear
9:55 PM 54.7 °F 22.8 °F 29% 30.06 in 10.0 mi Calm Calm - N/A   Clear
10:15 PM 52.7 °F 23.0 °F 31% 30.07 in 10.0 mi Calm Calm - N/A   Clear
10:35 PM 53.8 °F 22.8 °F 30% 30.07 in 10.0 mi Calm Calm - N/A   Clear
10:55 PM 53.6 °F 22.3 °F 30% 30.06 in 10.0 mi Calm Calm - N/A   Clear
11:15 PM 53.2 °F 21.9 °F 29% 30.07 in 10.0 mi NE 3.5 mph - N/A   Clear
11:35 PM 53.4 °F 21.9 °F 29% 30.06 in 10.0 mi ENE 3.5 mph - N/A   Clear
11:55 PM 51.8 °F 22.1 °F 31% 30.07 in 10.0 mi Calm Calm - N/A   Clear